Location: Wanzleben
(52.0609°N, 11.4408°E)
Time: 11:41:44
(UTC+00:00)

Cosmos 2263 Rocket - Pass Details

Date: 23 January 2021
Orbit: 825 x 847 km, 71.0° (Epoch: 24 February)

Event Time Altitude Azimuth Distance (km) Brightness Sun altitude
Rises 18:10:17 0° 257° (WSW) 3,404 6.8 -21.8°
Reaches altitude 10° 18:13:14 10° 271° (W) 2,469 5.8 -22.2°
Maximum altitude 18:17:44 23° 324° (NW) 1,706 4.1 -22.9°
Enters shadow 18:22:03 11° 15° (NNE) 2,419 4.4 -23.6°
